When you browse on this site, cookies collect data to enhance your experience and personalize the content and advertising you see.
Visit our Privacy Policy to learn more. By continuing to use the site, you agree to this use of cookies and data.
  • In France
  • List of Countries
  • For 7 days
  • Water Temperature
  • Satellite Maps
  • Weather Map
  • Weather Widgets
  • user-avatar
    Login

    Hourly Weather Yulara

    Today, 27 June, Thursday

    Time Temperature Precipitation Wind Pressure Humidity
    00:00 +8°C° 0 mm 4 mps 721 mmHg 40%
    01:00 +8°C° 0 mm 3 mps 721 mmHg 41%
    02:00 +8°C° 0 mm 3 mps 721 mmHg 42%
    03:00 +6°C° 0 mm 2 mps 721 mmHg 43%
    04:00 +6°C° 0 mm 2 mps 721 mmHg 43%
    05:00 +6°C° 0 mm 2 mps 721 mmHg 44%
    06:00 +6°C° 0 mm 2 mps 722 mmHg 44%
    07:00 +7°C° 0 mm 2 mps 722 mmHg 40%
    08:00 +9°C° 0 mm 2 mps 722 mmHg 36%
    09:00 +13°C° 0 mm 2 mps 722 mmHg 31%
    10:00 +14°C° 0 mm 3 mps 722 mmHg 28%
    11:00 +17°C° 0 mm 3 mps 722 mmHg 25%
    12:00 +19°C° 0 mm 3 mps 721 mmHg 21%
    13:00 +20°C° 0 mm 3 mps 721 mmHg 20%
    14:00 +21°C° 0 mm 2 mps 720 mmHg 18%
    15:00 +23°C° 0 mm 2 mps 720 mmHg 17%
    16:00 +19°C° 0 mm 2 mps 719 mmHg 21%
    17:00 +16°C° 0 mm 1 mps 719 mmHg 26%
    18:00 +13°C° 0 mm 1 mps 719 mmHg 31%
    19:00 +14°C° 0 mm 1 mps 719 mmHg 30%
    20:00 +14°C° 0 mm 2 mps 720 mmHg 29%
    21:00 +13°C° 0 mm 3 mps 720 mmHg 28%
    22:00 +12°C° 0 mm 3 mps 720 mmHg 29%
    23:00 +12°C° 0 mm 3 mps 720 mmHg 30%

    Tomorrow, 28 June, Friday

    Time Temperature Precipitation Wind Pressure Humidity
    00:00 +11°C° 0 mm 3 mps 720 mmHg 32%
    01:00 +10°C° 0 mm 3 mps 720 mmHg 33%
    02:00 +10°C° 0 mm 3 mps 719 mmHg 34%
    03:00 +9°C° 0 mm 2 mps 719 mmHg 35%
    04:00 +9°C° 0 mm 2 mps 719 mmHg 37%
    05:00 +9°C° 0 mm 3 mps 719 mmHg 38%
    06:00 +9°C° 0 mm 3 mps 719 mmHg 39%
    07:00 +11°C° 0 mm 3 mps 720 mmHg 35%
    08:00 +13°C° 0 mm 3 mps 720 mmHg 31%
    09:00 +16°C° 0 mm 3 mps 720 mmHg 27%
    10:00 +18°C° 0 mm 4 mps 720 mmHg 24%
    11:00 +20°C° 0 mm 5 mps 720 mmHg 21%
    12:00 +23°C° 0 mm 5 mps 720 mmHg 18%
    13:00 +24°C° 0 mm 6 mps 720 mmHg 17%
    14:00 +24°C° 0 mm 6 mps 719 mmHg 16%
    15:00 +26°C° 0 mm 6 mps 719 mmHg 16%
    16:00 +23°C° 0 mm 5 mps 719 mmHg 18%
    17:00 +21°C° 0 mm 5 mps 719 mmHg 20%
    18:00 +19°C° 0 mm 4 mps 719 mmHg 23%
    19:00 +18°C° 0 mm 4 mps 719 mmHg 25%
    20:00 +17°C° 0 mm 4 mps 719 mmHg 27%
    21:00 +16°C° 0 mm 3 mps 720 mmHg 29%
    22:00 +14°C° 0 mm 5 mps 720 mmHg 45%
    23:00 +13°C° 0 mm 6 mps 720 mmHg 61%

    Day after tomorrow, 29 June, Saturday

    Time Temperature Precipitation Wind Pressure Humidity
    00:00 +11°C° 0 mm 8 mps 721 mmHg 76%
    01:00 +11°C° 0 mm 7 mps 721 mmHg 75%
    02:00 +10°C° 0 mm 6 mps 721 mmHg 73%
    03:00 +9°C° 0 mm 6 mps 721 mmHg 72%
    04:00 +8°C° 0 mm 5 mps 722 mmHg 70%
    05:00 +7°C° 0 mm 4 mps 722 mmHg 67%
    06:00 +7°C° 0 mm 3 mps 722 mmHg 65%
    07:00 +7°C° 0 mm 4 mps 723 mmHg 58%
    08:00 +8°C° 0 mm 5 mps 723 mmHg 50%
    09:00 +9°C° 0 mm 6 mps 724 mmHg 43%
    10:00 +11°C° 0 mm 6 mps 724 mmHg 35%
    11:00 +13°C° 0 mm 6 mps 724 mmHg 27%
    12:00 +15°C° 0 mm 6 mps 724 mmHg 19%
    13:00 +16°C° 0 mm 6 mps 723 mmHg 17%
    14:00 +17°C° 0 mm 6 mps 723 mmHg 15%
    15:00 +17°C° 0 mm 6 mps 722 mmHg 14%
    16:00 +15°C° 0 mm 5 mps 722 mmHg 16%
    17:00 +13°C° 0 mm 5 mps 722 mmHg 19%
    18:00 +11°C° 0 mm 4 mps 722 mmHg 21%
    19:00 +10°C° 0 mm 4 mps 723 mmHg 24%
    20:00 +8°C° 0 mm 4 mps 723 mmHg 26%
    21:00 +7°C° 0 mm 4 mps 723 mmHg 28%
    22:00 +7°C° 0 mm 4 mps 724 mmHg 32%
    23:00 +6°C° 0 mm 4 mps 724 mmHg 35%

    30 June, Sunday

    Time Temperature Precipitation Wind Pressure Humidity
    00:00 +5°C° 0 mm 4 mps 724 mmHg 38%
    01:00 +5°C° 0 mm 4 mps 724 mmHg 42%
    02:00 +4°C° 0 mm 3 mps 723 mmHg 46%
    03:00 +3°C° 0 mm 3 mps 723 mmHg 50%
    04:00 +3°C° 0 mm 3 mps 724 mmHg 54%
    05:00 +2°C° 0 mm 3 mps 724 mmHg 58%
    06:00 +2°C° 0 mm 3 mps 724 mmHg 63%
    07:00 +4°C° 0 mm 4 mps 724 mmHg 59%
    08:00 +5°C° 0 mm 5 mps 724 mmHg 55%
    09:00 +7°C° 0 mm 5 mps 725 mmHg 51%
    10:00 +9°C° 0 mm 5 mps 724 mmHg 44%
    11:00 +12°C° 0 mm 5 mps 724 mmHg 36%
    12:00 +14°C° 0 mm 5 mps 723 mmHg 28%
    13:00 +15°C° 0 mm 5 mps 723 mmHg 25%
    14:00 +16°C° 0 mm 5 mps 722 mmHg 22%
    15:00 +18°C° 0 mm 4 mps 721 mmHg 20%
    16:00 +15°C° 0 mm 4 mps 721 mmHg 23%
    17:00 +13°C° 0 mm 4 mps 721 mmHg 26%
    18:00 +11°C° 0 mm 3 mps 721 mmHg 30%
    19:00 +11°C° 0 mm 3 mps 721 mmHg 32%
    20:00 +10°C° 0 mm 4 mps 722 mmHg 34%
    21:00 +8°C° 0 mm 4 mps 722 mmHg 36%
    22:00 +7°C° 0 mm 4 mps 722 mmHg 39%
    23:00 +8°C° 0 mm 3 mps 722 mmHg 41%

    1 July, Monday

    Time Temperature Precipitation Wind Pressure Humidity
    00:00 +7°C° 0 mm 3 mps 722 mmHg 44%
    01:00 +5°C° 0 mm 3 mps 722 mmHg 47%
    02:00 +5°C° 0 mm 3 mps 721 mmHg 50%
    03:00 +4°C° 0 mm 3 mps 721 mmHg 53%
    04:00 +4°C° 0 mm 3 mps 721 mmHg 56%
    05:00 +3°C° 0 mm 3 mps 722 mmHg 58%
    06:00 +3°C° 0 mm 3 mps 722 mmHg 60%
    07:00 +5°C° 0 mm 3 mps 722 mmHg 54%
    08:00 +7°C° 0 mm 3 mps 722 mmHg 48%
    09:00 +9°C° 0 mm 3 mps 722 mmHg 42%
    10:00 +13°C° 0 mm 2 mps 722 mmHg 37%
    11:00 +15°C° 0 mm 2 mps 722 mmHg 32%
    12:00 +19°C° 0 mm 1 mps 721 mmHg 27%
    13:00 +19°C° 0 mm 2 mps 721 mmHg 24%
    14:00 +20°C° 0 mm 3 mps 720 mmHg 22%
    15:00 +21°C° 0 mm 4 mps 719 mmHg 19%
    16:00 +18°C° 0 mm 2 mps 719 mmHg 30%
    17:00 +15°C° 0 mm 1 mps 719 mmHg 40%
    18:00 +11°C° 0 mm 0 mps 719 mmHg 50%
    19:00 +11°C° 0 mm 1 mps 719 mmHg 51%
    20:00 +11°C° 0 mm 1 mps 719 mmHg 51%
    21:00 +10°C° 0 mm 1 mps 720 mmHg 52%
    22:00 +10°C° 0 mm 1 mps 720 mmHg 47%
    23:00 +9°C° 0 mm 2 mps 720 mmHg 43%

    2 July, Tuesday

    Time Temperature Precipitation Wind Pressure Humidity
    00:00 +9°C° 0 mm 2 mps 720 mmHg 38%
    01:00 +8°C° 0 mm 2 mps 719 mmHg 41%
    02:00 +8°C° 0 mm 2 mps 719 mmHg 43%
    03:00 +7°C° 0 mm 2 mps 719 mmHg 46%
    04:00 +7°C° 0 mm 2 mps 719 mmHg 45%
    05:00 +7°C° 0 mm 2 mps 720 mmHg 45%
    06:00 +7°C° 0 mm 3 mps 720 mmHg 45%
    07:00 +9°C° 0 mm 3 mps 720 mmHg 40%
    08:00 +10°C° 0 mm 3 mps 721 mmHg 36%
    09:00 +12°C° 0 mm 3 mps 721 mmHg 31%
    10:00 +14°C° 0 mm 3 mps 721 mmHg 28%
    11:00 +17°C° 0 mm 3 mps 721 mmHg 24%
    12:00 +19°C° 0 mm 3 mps 721 mmHg 20%
    13:00 +20°C° 0 mm 3 mps 720 mmHg 19%
    14:00 +20°C° 0 mm 3 mps 720 mmHg 18%
    15:00 +21°C° 0 mm 3 mps 720 mmHg 16%
    16:00 +19°C° 0 mm 3 mps 720 mmHg 19%
    17:00 +17°C° 0 mm 3 mps 720 mmHg 22%
    18:00 +14°C° 0 mm 3 mps 720 mmHg 24%
    19:00 +13°C° 0 mm 4 mps 720 mmHg 26%
    20:00 +12°C° 0 mm 4 mps 721 mmHg 27%
    21:00 +11°C° 0 mm 4 mps 721 mmHg 29%
    22:00 +10°C° 0 mm 4 mps 721 mmHg 30%
    23:00 +8°C° 0 mm 4 mps 721 mmHg 32%
    Show more